Orbital Elements at Epoch 2459200.5 (2020-Dec-17.0) TDB
Reference: JPL 19 (heliocentric ecliptic J2000)
Element | Value | Uncertainty (1-sigma) | Units |
e | .1204444585034797 | 3.6688e-08 | |
a | 2.348448436538515 | 1.2424e-08 | au |
q | 2.065590836276291 | 8.9052e-08 | au |
i | 5.561603704493759 | 5.4661e-06 | deg |
node | 192.494738044078 | 3.9218e-05 | deg |
peri | 68.09660417326764 | 4.5439e-05 | deg |
M | 53.55780052157802 | 2.3454e-05 | deg |
tp | 2459004.935418432166 (2020-Jun-04.43541843) | 8.5193e-05 | TDB |
period | 1314.528391360199 3.60 | 1.0431e-05 2.856e-08 | d yr |
n | .2738624759770251 | 2.1732e-09 | deg/d |
Q | 2.63130603680074 | 1.392e-08 | au |
|
| | Orbit Determination Parameters
Additional Information
|